Ord, NE

2:26 AM CDT on April 30, 2017 (GMT -0500)
Sharp

Weather History for KODX - November, 2011

Change the Weather History Date:

Sunday, November 20, 2011

  Actual Average Record
Temperature  
Mean Temperature 21 °F 34 °F  
Max Temperature 33 °F 46 °F 72 °F (2003)
Min Temperature 9 °F 22 °F 4 °F (2014)
Degree Days  
Heating Degree Days 44 31  
Month to date heating degree days 568 524  
Since 1 July heating degree days 1197 1144  
Cooling Degree Days 0 0  
Month to date cooling degree days 0 0  
Year to date cooling degree days 922 845  
Moisture  
Dew Point 14 °F    
Average Humidity 76    
Maximum Humidity 92    
Minimum Humidity 59    
Precipitation  
Precipitation 0.00 in 0.03 in 0.65 in (1975)
Month to date precipitation 0.03 0.78  
Year to date precipitation 22.91 24.06  
Sea Level Pressure  
Sea Level Pressure 30.31 in    
Wind  
Wind Speed 3 mph (South)    
Max Wind Speed 12 mph    
Max Gust Speed 16 mph    
Visibility 10 miles    
Events      
T = Trace of Precipitation, MM = Missing Value Source: NWS Daily Summary

Daily Weather History Graph

Daily Weather History Graph

Search for Another Location

Airport or City:

Trip Planner

Search our weather history database for the weather conditions in past years. The results will help you decide how hot, cold, wet, or windy it might be!

Date:

Astronomy

Nov. 20, 2011 Rise Set
Actual Time 7:30 AM CST 5:11 PM CST
Civil Twilight 7:00 AM CST 5:42 PM CST
Nautical Twilight 6:26 AM CST 6:15 PM CST
Astronomical Twilight 5:53 AM CST 6:48 PM CST
Moon 1:56 AM CST (11/20) 2:05 PM CST (11/20)
Length of Visible Light 10h 41m
Length of Day
9h 41m
Waning Crescent, 27% of the Moon is Illuminated
Nov 20
Waning Crescent
Nov 25
New
Dec 2
First Quarter
Dec 10
Full
Dec 17
Last Quarter

Hourly Weather History & Observations

Time (CST) Temp. Windchill Dew Point Humidity Pressure Visibility Wind Dir Wind Speed Gust Speed Precip Events Conditions
12:53 AM 16.0 °F 8.8 °F 10.9 °F 81% 30.30 in 10.0 mi North 4.6 mph - N/A   Clear
1:53 AM 14.0 °F 8.2 °F 10.0 °F 84% 30.32 in 10.0 mi North 3.5 mph - N/A   Clear
2:53 AM 14.0 °F - 10.0 °F 84% 30.34 in 10.0 mi Calm Calm - N/A   Clear
3:53 AM 16.0 °F 10.4 °F 12.0 °F 84% 30.34 in 10.0 mi NNE 3.5 mph - N/A   Scattered Clouds
4:53 AM 16.0 °F 8.8 °F 12.0 °F 84% 30.33 in 10.0 mi North 4.6 mph - N/A   Partly Cloudy
6:53 AM 12.9 °F - 10.0 °F 88% 30.36 in 10.0 mi Calm Calm - N/A   Clear
7:53 AM 10.4 °F - 6.8 °F 85% 30.25 in 10.0 mi Calm Calm - N/A   Clear
8:53 AM 15.1 °F - 10.9 °F 84% 30.39 in 10.0 mi Calm Calm - N/A   Clear
9:53 AM 18.0 °F - 12.9 °F 81% 30.40 in 10.0 mi Calm Calm - N/A   Clear
10:53 AM 21.0 °F - 14.0 °F 74% 30.38 in 10.0 mi Calm Calm - N/A   Clear
11:53 AM 24.1 °F - 15.1 °F 69% 30.37 in 10.0 mi Calm Calm - N/A   Clear
12:53 PM 28.0 °F - 18.0 °F 66% 30.33 in 10.0 mi Calm Calm - N/A   Clear
1:53 PM 30.0 °F 24.1 °F 19.0 °F 64% 30.31 in 10.0 mi SSW 5.8 mph - N/A   Clear
2:53 PM 30.9 °F 26.2 °F 19.9 °F 64% 30.28 in 10.0 mi South 4.6 mph - N/A   Clear
3:53 PM 32.0 °F 26.4 °F 19.9 °F 61% 30.26 in 10.0 mi SSE 5.8 mph - N/A   Clear
4:53 PM 30.9 °F 24.3 °F 19.9 °F 64% 30.27 in 10.0 mi South 6.9 mph - N/A   Clear
5:53 PM 28.0 °F 20.8 °F 19.0 °F 69% 30.28 in 10.0 mi SSE 6.9 mph - N/A   Clear
6:53 PM 26.1 °F 18.4 °F 17.1 °F 69% 30.27 in 10.0 mi SSE 6.9 mph - N/A   Clear
7:53 PM 19.4 °F 14.3 °F 15.8 °F 86% 30.20 in 10.0 mi SW 3.5 mph - N/A   Clear
8:53 PM 18.0 °F - 14.0 °F 84% 30.30 in 10.0 mi Calm Calm - N/A   Clear
9:53 PM 19.4 °F 14.3 °F 14.0 °F 80% 30.21 in 10.0 mi SSW 3.5 mph - N/A   Clear
10:53 PM 19.0 °F - 14.0 °F 81% 30.31 in 10.0 mi Calm Calm - N/A   Clear
11:53 PM 19.0 °F - 15.1 °F 85% 30.31 in 10.0 mi Calm Calm - N/A   Clear